Погода Остров Хейса

Погода Остров Хейса : погода сейчас, прогноз погоды и архив. Всё, что Вы хотите узнать о погоде Остров Хейса!

Поиск расширенной информации на нашем сайте:

Другие новости

Новости СМИ2

Главная страница сайта

Новости сайта

03.07.2017

Напоминаем, что на нашем специализированном сайте Метеоцентр.Азия вы можете получить высокодетализированные автоматические прогнозы погоды по пунктам России, СНГ и мира в авиационном формате (включающие направление и скорость ветра, видимость, явления погоды, количество и форму облачности, нижнюю и верхнюю границу облачности).

Рекомендуем: Свадебные арки в Киеве - http://flordekor.com.ua/index.php?p=9 Флордекор.

Погода Остров Хейса - сегодня

Время (UTC), дата Ветер
(°,м/с) 
Видим.   Явления Облачность Т
(°С)
Тd
(°С)
f(%) Тe
(°С)
Pmin
(гПа)
dP
(гПа)
Po
(мм)
O2
(г/м3)
Тmin Tmax R s Состояние
почвы
21 14.04.18 350 (С) 20000 м    10/0 средняя, верхняя 
[Ac trans|Ci fib]
-15.6 -17.4 86 -20  1008.5  0.7  754  324           
00 15.04.18 320 (СЗ) 20000 м    9/0 средняя 
[Ac und]
-14.9 -16.6 87 -19  1009  0.5  755  323           
15 15.04.18 340 (С) 20000 м    ясно 
-19.4 -21.9 81 -25  1016.4  1.3  760  331           
18 15.04.18 360 (С) 20000 м    ясно 
-20.6 -22.7 83 -29  1016.5  760  333    -16.9       
21 15.04.18 050 (СВ) 20000 м    ясно 
-22.6 -24.8 82 -26  1017  0.5  760  336           
03 16.04.18 330 (СЗ) 20000 м    ясно 
-22.6 -25.1 80 -29  1016.2  -1.2  760  336           
06 16.04.18 340 (С) 6{11}  20000 м    ясно 
-21.9 -24.3 81 -30  1015.4  -0.7  759  334           
09 16.04.18 330 (СЗ) 20000 м    ясно 
-21 -23.4 81 -28  1015  -0.4  759  333           
12 16.04.18 340 (С) 8{12}  20000 м  позёмок  ясно 
-20.5 -23.1 80 -29  1013.7  -1.2  758  332           
15 16.04.18 320 (СЗ) 9{12}  20000 м  позёмок  8/0 средняя, верхняя 
[Ac trans|Ci fib]
-18.5 -22.3 72 -27  1011.9  -1.8  757  329           
09 17.04.18 060 (СВ) 20000 м    9/3 600 м средняя 
[Sc|Ac und]
-16.9 -19 84 -19  1004.5  -0.1  751  324           
12 17.04.18 120 (ЮВ) 20000 м    9/9 660 м 
[Sc]
-16 -18.4 82 -16  1003.9  -0.6  751  323           
15 17.04.18 020 (С) 20000 м    9/4 600 м средняя, верхняя 
[Sc|Ac trans|Ci fib]
-16.9 -19.1 83 -22  1003.4  -0.6  750  324           
03 18.04.18 050 (СВ) 20000 м    4/3 600 м средняя 
[Sc|Ac trans]
-16.8 -19.3 81 -25  1007.6  1.4  753  325           
15 18.04.18 050 (СВ) 20000 м    1/0 верхняя 
[Ci fib]
-16.5 -18.4 85 -23  1014.5  1.6  759  327           
18 18.04.18 060 (СВ) 20000 м    3/0 верхняя 
[Ci fib]
-18.2 -20 86 -24  1015.7  1.3  760  329    -15.1       
21 18.04.18 050 (СВ) 20000 м    3/0 верхняя 
[Ci fib]
-18.3 -20 86 -26  1016.9  1.2  760  330           
00 19.04.18 360 (С) 20000 м    3/0 верхняя 
[Ci fib]
-18.4 -20.3 85 -19  1018.2  1.3  761  331           
03 19.04.18 240 (ЮЗ) 20000 м    8/0 верхняя 
[Ci fib]
-19.1 -21 85 -23  1018.4  0.2  761  332           
06 19.04.18 250 (З) 20000 м    10/0 верхняя 
[Cs]
-16.8 -18.6 86 -21  1018.2  -0.2  761  328           
09 19.04.18 340 (С) 20000 м  в посл. час снег  10/0 верхняя 
[Cs]
-13.5 -15.2 87 -19  1017.6  -0.5  761  324           
12 19.04.18 330 (СЗ) 20000 м  {снег}  10/3 600 м средняя, верхняя 
[Sc|Ac lent|Cs]
-13.4 -15.5 84 -18  1017.5  -0.1  761  324           
15 19.04.18 340 (С) 20000 м    6/3 600 м верхняя 
[Sc|Ci fib]
-14.7 -16.8 84 -21  1017.2  -0.3  761  325           
21 19.04.18 110 (В) 20000 м    8/0 средняя, верхняя 
[Ac trans|Ci fib]
-18.6 -20.4 86 -21  1016.3  -0.3  760  330           
00 20.04.18 130 (ЮВ) 20000 м    5/0 средняя, верхняя 
[Ac lent|Ci sp]
-18.3 -20.2 85 -21  1015.5  -0.8  759  330           
Время (UTC), дата Ветер
(°,м/с) 
Видим.   Явления Облачность Т
(°С)
Тd
(°С)
f(%) Тe
(°С)
Pmin
(гПа)
dP
(гПа)
Po
(мм)
O2
(г/м3)
Тmin Tmax R s Состояние
почвы

Для получения пояснительной информации подведите курсор к названию столбца.

ПОГОДА Остров Хейса - архив

Всё, что Вы хотите узнать о погоде Остров Хейса - удобно и подробно!

Выберите нужную дату (начиная с 1 января 2015* года) и нажмите кнопку "Найти".
Будут отображены архивные сводки погоды по пункту Остров Хейса, начиная с указанной даты.


Отображать данные в формате CSV (для использования в таблицах Excel)


Внимание! Наш архив погоды предназначен исключительно для личного некоммерческого использования в познавательных целях. Если Вам необходимы официальные справки о состоянии погоды (для производственных, юридических, коммерческих и т.п. целей), обращайтесь в органы Росгидромета.

*Примечание: данная дата относится к архиву по метеостанциям СССР (Россия, СНГ, Балтия).
Архив по метеостанциям Зарубежной Европы и Азии (кроме Китая) хранится 10 дней, по другим регионам земного шара (Китай, Африка, Америка, Австралия, Океания) - 1 день.

Остров Хейса - район местоположения метеостанции


Название, широта, долгота, высота метеостанции:
Остров Хейса (Обсерватория Им.Кренкеля) 80.6°ш. 58.1°д. 22 м над ур. моря [Российская Федерация]

Дополнительная информация

В oтличие oт бoльшинства пoгoдных сайтoв мы публикуем пoдрoбную метеoинфoрмацию в детальнoм прoфессиoнальнoм фoрмате.

Характеристики температуры и влажнoсти вoздуха измеряются на высoте 2 м в тени вдали oт зданий и деревьев.
Скoрoсть ветра измеряется на высoте 10 м (на урoвне рoста челoвека скoрoсть ветра ниже в 1.5-2 раза). Если метеoстанция нахoдится в гoрoде или в лесу, тo скoрoсть ветра занижена на 2-4 м/с пo сравнению с oткрытым местoм. Скoрoсть ветра над акватoриями крупных рек и oзёр, а также на вершинах хoлмoв на 2-5 м/с выше, чем в oбычных услoвиях.
Атмoсфернoе давление в разных тoчках местнoсти мoжет значительнo oтличаться oт давления на метеoстанции, в зависимoсти oт услoвий рельефа (при пoдъёме на 10 м давление пoнижается примернo на 1 мм рт.ст.).